DARAJ65 OERF-OIFM

Flight info

Callsign DARAJ65
Flight time 1h 10m
Altitude FL410
Route RAF G669 KUA B417 IMKEN W6 GADLU GADL1Q
Aircraft CL60/M-SADE3FGHIJ3J4J7P2RWXY/HB1D1

Departure

Time 2026-05-06 21:44
Airport Rafha Domestic Airport (OERF)

Arrival

Time 2026-05-06 22:54
Airport Isfahan Shahid Beheshti International Airport (OIFM)
Time Latitude Longitude Altitude Speed Heading
2026-05-06 21:06 29.62452 43.48954 1467 ft 0 kts 213°
2026-05-06 21:41 29.62451 43.48953 1466 ft 2 kts 213°
2026-05-06 21:41 29.62494 43.48883 1465 ft 15 kts 311°
2026-05-06 21:41 29.62607 43.48651 1464 ft 47 kts 295°
2026-05-06 21:42 29.62752 43.48280 1467 ft 47 kts 292°
2026-05-06 21:42 29.62887 43.47910 1470 ft 46 kts 292°
2026-05-06 21:42 29.63040 43.47641 1470 ft 31 kts 347°
2026-05-06 21:42 29.63149 43.47704 1470 ft 14 kts 111°
2026-05-06 21:43 29.63144 43.47717 1470 ft 0 kts 112°
2026-05-06 21:44 29.63062 43.47944 1471 ft 79 kts 112°
2026-05-06 21:44 29.62641 43.49038 1504 ft 181 kts 110°
2026-05-06 21:44 29.62141 43.50504 2392 ft 198 kts 108°
2026-05-06 21:45 29.61564 43.52039 3719 ft 214 kts 110°
2026-05-06 21:45 29.61063 43.53710 5226 ft 225 kts 102°
2026-05-06 21:45 29.60808 43.55544 6619 ft 239 kts 102°
2026-05-06 21:45 29.60550 43.57573 7878 ft 256 kts 102°
2026-05-06 21:46 29.60257 43.59826 8734 ft 288 kts 103°
2026-05-06 21:46 29.59938 43.62288 9809 ft 309 kts 103°
2026-05-06 21:46 29.59585 43.65014 10830 ft 333 kts 103°
2026-05-06 21:46 29.59221 43.67810 11786 ft 353 kts 103°
2026-05-06 21:47 29.58855 43.70632 12854 ft 365 kts 103°
2026-05-06 21:47 29.58460 43.73678 13955 ft 377 kts 103°
2026-05-06 21:47 29.58055 43.76802 15173 ft 383 kts 102°
2026-05-06 21:47 29.57657 43.79854 16364 ft 386 kts 102°
2026-05-06 21:48 29.57252 43.82961 17479 ft 391 kts 101°
2026-05-06 21:48 29.56822 43.86239 18617 ft 395 kts 101°
2026-05-06 21:48 29.56381 43.89591 19772 ft 398 kts 102°
2026-05-06 21:48 29.55945 43.92891 20836 ft 402 kts 102°
2026-05-06 21:49 29.55501 43.96249 21845 ft 407 kts 102°
2026-05-06 21:49 29.55050 43.99644 22845 ft 410 kts 102°
2026-05-06 21:49 29.54609 44.02949 23706 ft 416 kts 102°
2026-05-06 21:49 29.54148 44.06391 24489 ft 424 kts 102°
2026-05-06 21:50 29.53673 44.09933 25248 ft 431 kts 103°
2026-05-06 21:50 29.53194 44.13493 25951 ft 439 kts 103°
2026-05-06 21:50 29.52708 44.17104 26649 ft 445 kts 103°
2026-05-06 21:50 29.52210 44.20788 27339 ft 451 kts 104°
2026-05-06 21:51 29.51693 44.24607 28010 ft 456 kts 104°
2026-05-06 21:51 29.51173 44.28432 28615 ft 463 kts 104°
2026-05-06 21:51 29.50653 44.32230 29195 ft 468 kts 104°
2026-05-06 21:51 29.50113 44.36085 29706 ft 474 kts 104°
2026-05-06 21:52 29.49556 44.40052 30249 ft 480 kts 104°
2026-05-06 21:52 29.49000 44.44004 30733 ft 485 kts 105°
2026-05-06 21:52 29.48447 44.47928 31246 ft 489 kts 105°
2026-05-06 21:52 29.47883 44.51918 31706 ft 493 kts 105°
2026-05-06 21:53 29.47310 44.55967 32125 ft 498 kts 105°
2026-05-06 21:53 29.46731 44.60045 32537 ft 502 kts 105°
2026-05-06 21:53 29.46148 44.64142 32909 ft 506 kts 105°
2026-05-06 21:53 29.45578 44.68144 33291 ft 509 kts 106°
2026-05-06 21:54 29.44985 44.72300 33668 ft 512 kts 107°
2026-05-06 21:54 29.44388 44.76470 34018 ft 515 kts 106°
2026-05-06 21:54 29.43791 44.80634 34463 ft 515 kts 107°
2026-05-06 21:54 29.43193 44.84810 34952 ft 515 kts 106°
2026-05-06 21:55 29.42587 44.89016 35405 ft 514 kts 106°
2026-05-06 21:55 29.41983 44.93201 35804 ft 515 kts 107°
2026-05-06 21:55 29.41378 44.97382 36179 ft 516 kts 107°
2026-05-06 21:55 29.40772 45.01557 36541 ft 517 kts 107°
2026-05-06 21:56 29.40176 45.05657 36872 ft 518 kts 107°
2026-05-06 21:56 29.39549 45.09955 37241 ft 518 kts 107°
2026-05-06 21:56 29.38924 45.14232 37552 ft 519 kts 107°
2026-05-06 21:56 29.38287 45.18583 37892 ft 519 kts 107°
2026-05-06 21:57 29.37633 45.23033 38216 ft 520 kts 107°
2026-05-06 21:57 29.36999 45.27343 38497 ft 521 kts 107°
2026-05-06 21:57 29.36359 45.31683 38894 ft 519 kts 107°
2026-05-06 21:57 29.35707 45.36094 39218 ft 520 kts 107°
2026-05-06 21:58 29.35062 45.40454 39630 ft 518 kts 107°
2026-05-06 21:58 29.34433 45.44693 40015 ft 516 kts 107°
2026-05-06 21:58 29.33791 45.49000 40267 ft 516 kts 107°
2026-05-06 21:58 29.33144 45.53344 40647 ft 514 kts 107°
2026-05-06 21:59 29.32503 45.57634 40967 ft 512 kts 107°
2026-05-06 21:59 29.31859 45.61912 40991 ft 517 kts 107°
2026-05-06 21:59 29.30605 45.70246 40991 ft 517 kts 107°
2026-05-06 22:00 29.29349 45.78569 40991 ft 515 kts 107°
2026-05-06 22:00 29.28010 45.87400 40978 ft 514 kts 108°
2026-05-06 22:01 29.26703 45.95976 40973 ft 513 kts 108°
2026-05-06 22:01 29.25382 46.04610 40981 ft 512 kts 108°
2026-05-06 22:02 29.24052 46.13238 40982 ft 519 kts 108°
2026-05-06 22:02 29.22702 46.21974 40960 ft 525 kts 107°
2026-05-06 22:03 29.21357 46.30636 40963 ft 531 kts 107°
2026-05-06 22:03 29.19977 46.39487 40964 ft 536 kts 107°
2026-05-06 22:04 29.18619 46.48467 40962 ft 541 kts 104°
2026-05-06 22:04 29.18391 46.57678 40959 ft 549 kts 94°
2026-05-06 22:05 29.18497 46.66815 40964 ft 548 kts 95°
2026-05-06 22:05 29.18594 46.75990 40962 ft 548 kts 95°
2026-05-06 22:06 29.18682 46.85053 40957 ft 549 kts 95°
2026-05-06 22:06 29.18761 46.93964 40962 ft 550 kts 95°
2026-05-06 22:07 29.18878 47.02747 40954 ft 553 kts 92°
2026-05-06 22:07 29.19493 47.11858 40950 ft 554 kts 90°
2026-05-06 22:08 29.20098 47.20687 40951 ft 554 kts 90°
2026-05-06 22:08 29.20736 47.30138 40947 ft 554 kts 90°
2026-05-06 22:09 29.21361 47.39505 40939 ft 555 kts 90°
2026-05-06 22:09 29.21940 47.48308 40934 ft 554 kts 90°
2026-05-06 22:10 29.22522 47.57252 40921 ft 554 kts 90°
2026-05-06 22:10 29.23103 47.66288 40910 ft 554 kts 90°
2026-05-06 22:11 29.23688 47.75493 40903 ft 554 kts 90°
2026-05-06 22:11 29.24253 47.84490 40903 ft 554 kts 91°
2026-05-06 22:12 29.24850 47.93745 40904 ft 556 kts 88°
2026-05-06 22:12 29.26421 48.02784 40903 ft 561 kts 80°
2026-05-06 22:13 29.28598 48.11960 40889 ft 564 kts 71°
2026-05-06 22:13 29.32150 48.20472 40883 ft 564 kts 58°
2026-05-06 22:14 29.37178 48.28121 40882 ft 562 kts 44°
2026-05-06 22:14 29.43309 48.34418 40880 ft 555 kts 31°
2026-05-06 22:15 29.50156 48.39481 40881 ft 551 kts 26°
2026-05-06 22:15 29.57028 48.44331 40887 ft 551 kts 25°
2026-05-06 22:16 29.63858 48.49161 40887 ft 552 kts 26°
2026-05-06 22:16 29.70733 48.54034 40888 ft 552 kts 26°
2026-05-06 22:17 29.77670 48.58959 40885 ft 552 kts 26°
2026-05-06 22:17 29.84508 48.63823 40881 ft 553 kts 25°
2026-05-06 22:18 29.91320 48.68676 40880 ft 552 kts 26°
2026-05-06 22:18 29.98258 48.73628 40871 ft 553 kts 26°
2026-05-06 22:19 30.05104 48.78523 40855 ft 554 kts 26°
2026-05-06 22:19 30.11987 48.83454 40866 ft 552 kts 26°
2026-05-06 22:20 30.18781 48.88329 40868 ft 552 kts 26°
2026-05-06 22:20 30.25736 48.93326 40859 ft 552 kts 26°
2026-05-06 22:21 30.32534 48.98219 40871 ft 553 kts 26°
2026-05-06 22:21 30.39278 49.03082 40884 ft 553 kts 26°
2026-05-06 22:22 30.45925 49.07882 40884 ft 555 kts 26°
2026-05-06 22:22 30.52600 49.12695 40880 ft 555 kts 25°
2026-05-06 22:23 30.59581 49.16440 40875 ft 541 kts 11°
2026-05-06 22:23 30.66743 49.19161 40879 ft 539 kts
2026-05-06 22:24 30.73885 49.21875 40888 ft 539 kts 10°
2026-05-06 22:24 30.81097 49.24620 40886 ft 539 kts 10°
2026-05-06 22:25 30.88258 49.27352 40885 ft 540 kts 10°
2026-05-06 22:25 30.95523 49.30129 40897 ft 539 kts 10°
2026-05-06 22:26 31.02704 49.32880 40891 ft 539 kts 10°
2026-05-06 22:26 31.09982 49.35672 40916 ft 539 kts 10°
2026-05-06 22:27 31.17187 49.38442 40912 ft 539 kts
2026-05-06 22:27 31.24297 49.41180 40951 ft 539 kts 10°
2026-05-06 22:28 31.31556 49.43979 40949 ft 539 kts 10°
2026-05-06 22:28 31.38717 49.46745 40977 ft 539 kts 10°
2026-05-06 22:29 31.45894 49.49522 40986 ft 540 kts 10°
2026-05-06 22:29 31.53080 49.52307 41011 ft 540 kts 10°
2026-05-06 22:30 31.60246 49.55198 41020 ft 544 kts 14°
2026-05-06 22:30 31.67169 49.59312 41078 ft 554 kts 26°
2026-05-06 22:31 31.73478 49.64975 41089 ft 563 kts 39°
2026-05-06 22:31 31.78712 49.71982 41119 ft 567 kts 54°
2026-05-06 22:32 31.82796 49.80108 41164 ft 568 kts 61°
2026-05-06 22:32 31.86686 49.88453 41259 ft 568 kts 61°
2026-05-06 22:33 31.90669 49.97021 41316 ft 568 kts 61°
2026-05-06 22:33 31.94668 50.05647 41336 ft 568 kts 61°
2026-05-06 22:34 31.98717 50.14401 41384 ft 568 kts 61°
2026-05-06 22:34 32.02619 50.22857 41434 ft 566 kts 61°
2026-05-06 22:35 32.05815 50.29798 41443 ft 566 kts 62°
2026-05-06 22:35 32.09799 50.38475 41441 ft 555 kts 61°
2026-05-06 22:36 32.13613 50.46796 40814 ft 550 kts 62°
2026-05-06 22:36 32.15594 50.51128 40066 ft 548 kts 61°
2026-05-06 22:36 32.17500 50.55303 39345 ft 545 kts 62°
2026-05-06 22:37 32.19420 50.59510 38595 ft 546 kts 61°
2026-05-06 22:37 32.21337 50.63715 37833 ft 548 kts 61°
2026-05-06 22:37 32.23232 50.67876 37082 ft 546 kts 62°
2026-05-06 22:37 32.25129 50.72044 36262 ft 545 kts 62°
2026-05-06 22:38 32.27057 50.76185 35530 ft 542 kts 59°
2026-05-06 22:38 32.29346 50.80133 34752 ft 538 kts 50°
2026-05-06 22:38 32.31898 50.83741 33976 ft 536 kts 47°
2026-05-06 22:38 32.34404 50.87205 33264 ft 534 kts 47°
2026-05-06 22:39 32.36941 50.90721 32512 ft 530 kts 47°
2026-05-06 22:39 32.39543 50.94329 31734 ft 524 kts 47°
2026-05-06 22:39 32.42064 50.97830 30999 ft 518 kts 48°
2026-05-06 22:39 32.44470 51.01176 30261 ft 513 kts 48°
2026-05-06 22:40 32.46989 51.04682 29507 ft 507 kts 48°
2026-05-06 22:40 32.49471 51.08139 28794 ft 498 kts 48°
2026-05-06 22:40 32.51842 51.11446 28079 ft 491 kts 48°
2026-05-06 22:40 32.54203 51.14741 27413 ft 483 kts 48°
2026-05-06 22:41 32.58812 51.21184 26030 ft 469 kts 49°
2026-05-06 22:41 32.61029 51.24288 25387 ft 461 kts 49°
2026-05-06 22:41 32.63240 51.27385 24733 ft 454 kts 49°
2026-05-06 22:42 32.65438 51.30468 24060 ft 447 kts 49°
2026-05-06 22:42 32.67522 51.33392 23459 ft 439 kts 49°
2026-05-06 22:42 32.69562 51.36258 22842 ft 431 kts 49°
2026-05-06 22:42 32.71599 51.39122 22252 ft 423 kts 49°
2026-05-06 22:43 32.73575 51.41904 21659 ft 416 kts 49°
2026-05-06 22:43 32.75473 51.44576 21092 ft 410 kts 48°
2026-05-06 22:43 32.77363 51.47240 20519 ft 404 kts 48°
2026-05-06 22:43 32.79280 51.49944 19916 ft 401 kts 49°
2026-05-06 22:44 32.81219 51.52681 19296 ft 398 kts 48°
2026-05-06 22:44 32.83056 51.55276 18734 ft 392 kts 48°
2026-05-06 22:44 32.84828 51.57782 18197 ft 386 kts 48°
2026-05-06 22:44 32.86645 51.60353 17664 ft 380 kts 48°
2026-05-06 22:45 32.88410 51.62852 17126 ft 375 kts 48°
2026-05-06 22:45 32.90160 51.65332 16609 ft 371 kts 48°
2026-05-06 22:45 32.91925 51.67834 16091 ft 366 kts 49°
2026-05-06 22:45 32.93649 51.70281 15587 ft 362 kts 48°
2026-05-06 22:46 32.95346 51.72690 14942 ft 364 kts 48°
2026-05-06 22:46 32.97022 51.75071 14362 ft 360 kts 48°
2026-05-06 22:46 32.98681 51.77433 13949 ft 345 kts 48°
2026-05-06 22:46 33.00096 51.79924 13512 ft 334 kts 70°
2026-05-06 22:47 33.00370 51.82642 13351 ft 307 kts 104°
2026-05-06 22:47 32.99566 51.84868 13037 ft 279 kts 139°
2026-05-06 22:47 32.97971 51.86131 12507 ft 254 kts 175°
2026-05-06 22:47 32.96105 51.86568 11936 ft 256 kts 169°
2026-05-06 22:48 32.94505 51.87852 11393 ft 277 kts 134°
2026-05-06 22:48 32.93603 51.90064 10859 ft 286 kts 114°
2026-05-06 22:48 32.92832 51.92457 10323 ft 282 kts 118°
2026-05-06 22:48 32.91883 51.94707 9789 ft 277 kts 124°
2026-05-06 22:49 32.90802 51.96703 9590 ft 257 kts 131°
2026-05-06 22:49 32.89681 51.98400 9689 ft 228 kts 137°
2026-05-06 22:49 32.88521 51.99872 9590 ft 222 kts 142°
2026-05-06 22:49 32.87346 52.01131 9258 ft 215 kts 147°
2026-05-06 22:50 32.86103 52.02263 8989 ft 207 kts 150°
2026-05-06 22:50 32.84792 52.03270 8684 ft 204 kts 155°
2026-05-06 22:50 32.83432 52.04144 8376 ft 200 kts 159°
2026-05-06 22:50 32.82129 52.04832 8124 ft 190 kts 164°
2026-05-06 22:51 32.80859 52.04842 7875 ft 176 kts 208°
2026-05-06 22:51 32.79901 52.03840 7693 ft 176 kts 227°
2026-05-06 22:51 32.79014 52.02654 7381 ft 181 kts 227°
2026-05-06 22:51 32.78171 52.01433 7082 ft 181 kts 235°
2026-05-06 22:52 32.77645 51.99975 6751 ft 181 kts 253°
2026-05-06 22:52 32.77389 51.98430 6524 ft 176 kts 259°
2026-05-06 22:52 32.77197 51.96953 6325 ft 163 kts 260°
2026-05-06 22:52 32.76999 51.95615 6135 ft 156 kts 259°
2026-05-06 22:53 32.76785 51.94351 5949 ft 155 kts 257°
2026-05-06 22:53 32.76555 51.93096 5779 ft 155 kts 257°
2026-05-06 22:53 32.76320 51.91847 5608 ft 155 kts 257°
2026-05-06 22:53 32.76093 51.90616 5425 ft 140 kts 257°
2026-05-06 22:54 32.75880 51.89434 5285 ft 139 kts 258°
2026-05-06 22:54 32.75672 51.88263 5120 ft 135 kts 258°
2026-05-06 22:54 32.75484 51.87211 5084 ft 99 kts 258°
2026-05-06 22:54 32.75383 51.86635 5086 ft 28 kts 257°
2026-05-06 22:55 32.75343 51.86472 5086 ft 5 kts 205°
2026-05-06 22:55 32.75300 51.86506 5086 ft 10 kts 124°
2026-05-06 22:55 32.75257 51.86594 5086 ft 14 kts 119°
2026-05-06 22:55 32.75198 51.86714 5085 ft 18 kts 122°
2026-05-06 22:56 32.75110 51.86873 5082 ft 23 kts 122°
2026-05-06 22:56 32.74987 51.87016 5082 ft 26 kts 167°
2026-05-06 22:56 32.74811 51.87063 5082 ft 9 kts 166°
2026-05-06 22:56 32.74780 51.87072 5082 ft 0 kts 166°
2026-05-06 22:58 32.74770 51.87075 5082 ft 9 kts 168°
2026-05-06 22:58 32.74713 51.87087 5082 ft 2 kts 167°
2026-05-06 22:58 32.74700 51.87106 5082 ft 5 kts 88°
2026-05-06 22:59 32.74682 51.87128 5082 ft 1 kts 199°
2026-05-06 22:59 32.74678 51.87126 5082 ft 0 kts 204°